Terminal Aerodrome Forecast
Issued by NWS Upton, NY

Current Version | Previous Version | Text Only | Print | Product List | Glossary On
Versions: 1 2 3 4 5 6 7 8 9 10 11 12 13 14 15 16 17 18 19 20 21 22 23
000 FTUS41 KOKX 010500 TAFJFK TAF KJFK 010520Z 0106/0212 VRB04KT P6SM SCT250 FM010800 VRB03KT P6SM BKN100 FM011100 VRB03KT P6SM OVC070 FM011400 17005KT 4SM -SN SCT025 OVC040 FM011600 18008KT 2SM -SN OVC015 FM012100 17006KT 1SM -SN OVC008 FM020300 VRB04KT 1SM -FZRASN OVC008 FM020600 27008KT 4SM BR OVC010=

USA.gov is the U.S. government's official web portal to all federal, state and local government web resources and services.